Simultaneous Nadir Overpasses (SNOs) Predictions

Prediction of SNOs between METOP-A and TERRA Satellite Orbit:

Table of predicted SNOs for the next 14.0 days since TLE Epoch: 2/13/2021
Index Date (METOP-A) Time (METOP-A) Lat,Lon (METOP-A) SZA (METOP-A ) Date (TERRA) Time (TERRA) Lat,Lon (TERRA) SZA (TERRA ) Distance(km) Time Diff (sec)
1 02/15/2021 02:31:55 -81.35, 9.40 83.70 02/15/2021 02:32:38 -81.35, 9.36 83.69 0.80 43
2 02/15/2021 03:22:35 81.34, 177.07 96.32 02/15/2021 03:22:04 81.35, 177.10 96.32 1.62 31
3 02/17/2021 22:06:17 -81.35, 75.83 84.67 02/17/2021 22:06:51 -81.34, 75.75 84.67 1.26 34
4 02/17/2021 22:56:57 81.34,-116.52 95.35 02/17/2021 22:56:17 81.35,-116.54 95.34 1.42 40
5 02/20/2021 17:40:39 -81.34, 142.24 85.67 02/20/2021 17:41:04 -81.34, 142.11 85.67 2.13 25
6 02/20/2021 18:31:19 81.33, -50.12 94.35 02/20/2021 18:30:30 81.34, -50.21 94.33 1.70 49
7 02/23/2021 13:15:00 -81.34,-151.37 86.68 02/23/2021 13:15:15 -81.35,-151.19 86.65 3.34 15
8 02/23/2021 14:05:40 81.33, 16.26 93.34 02/23/2021 14:04:42 81.33, 16.09 93.29 2.89 58
9 02/26/2021 08:49:22 -81.34, -85.00 87.71 02/26/2021 08:49:28 -81.35, -84.91 87.70 1.59 6



Historial Predications of SNOs between METOP-A and TERRA
